Location: Alladorf
(49.9620°N, 11.3790°E)
Time: 20:37:02
(UTC+00:00)

NOAA 12 - Pass Details

Date: 29 November 2020
Orbit: 795 x 815 km, 98.5° (Epoch: 24 January)

Event Time Altitude Azimuth Distance (km) Brightness Sun altitude
Rises 05:37:38 0° 16° (NNE) 3,336 7.3 -11.0°
Reaches altitude 10° 05:40:00 10° 18° (NNE) 2,397 6.5 -10.7°
Maximum altitude 05:45:17 72° 103° (ESE) 846 4.4 -9.9°
Drops below altitude 10° 05:50:31 10° 188° (S) 2,367 6.7 -9.1°
Sets 05:52:50 0° 190° (S) 3,291 7.5 -8.7°
